Regional Weather Roundup
Issued by NWS Cleveland, OH

Home | Current Version | Previous Version | Text Only | Print | Product List | Glossary Off
Versions: 1 2 3 4 5 6 7 8 9 10 11 12 13 14 15 16 17 18 19 20 21 22 23 24 25 26 27 28 29 30 31 32 33 34 35 36 37 38 39 40 41 42 43 44 45 46 47 48 49 50

000
ASUS41 KCLE 180100
RWRCLE
OHIO REGIONAL WEATHER ROUNDUP
NATIONAL WEATHER SERVICE WILMINGTON, OH
800 PM EST FRI NOV 17 2017

NOTE: "FAIR" INDICATES FEW OR NO CLOUDS BELOW 12,000 FEET WITH NO
SIGNIFICANT WEATHER AND/OR OBSTRUCTIONS TO VISIBILITY.

OHZ001>008-015>018-024>027-034-035-043-044-180200-
   NORTHWEST OHIO

CITY           SKY/WX    TMP DP  RH WIND       PRES   REMARKS
DEFIANCE       CLOUDY    44  33  65 S15G22    29.85F
FINDLAY        FAIR      44  32  62 SE16G25   29.87F
TOLEDO EXPRESS MOCLDY    43  35  73 VRB5      29.87F
TOLEDO EXEC    FAIR      43  34  70 S12       29.89F
LIMA           CLOUDY    43  34  70 S16       29.88F
$$

OHZ009>014-019>023-028>033-038-089-180200-
   NORTHEAST OHIO

CITY           SKY/WX    TMP DP  RH WIND       PRES   REMARKS
CLE-HOPKINS    MOCLDY    42  30  62 S12       29.97F
CLE-LAKEFRONT  FAIR      43  28  55 SE22G28   29.93F
CUY CO. ARPT   CLOUDY    43  30  61 SE13G22   29.95F
LORAIN-ELYRIA  FAIR      41  27  57 S15       29.94F
ASHTABULA      FAIR      38  28  67 S12       29.99F
AKRON-CANTON   CLOUDY    40  28  62 S13       29.97F
WOOSTER        NOT AVBL
MANSFIELD      FAIR      41  30  65 S16       29.93F
YOUNGSTOWN     MOCLDY    38  28  67 SE8       30.00F
$$

OHZ042-051>053-060>062-070>072-077>081-180200-
  SOUTHWEST OHIO

CITY           SKY/WX    TMP DP  RH WIND       PRES   REMARKS
CINC-COVINGTON CLOUDY    46  36  68 S8        29.93F
CINC-LUNKEN    FAIR      41  36  82 NE3       29.95F
HAMILTON       FAIR      46  34  62 VRB3      29.94F
DAYTON         NOT AVBL
WRIGHT-PAT AFB FAIR      44  30  59 SE9       29.93F
DAYTON GENERAL FAIR      44  32  62 S12       29.93F
WILMINGTON     FAIR      41  33  73 SE9       29.95F
$$

OHZ036-037-039>041-045>050-054>059-063>069-073>076-082>088-180200-
  CENTRAL AND SOUTHEAST OHIO

CITY           SKY/WX    TMP DP  RH WIND       PRES   REMARKS
COLUMBUS       CLOUDY    43  32  65 SE6       29.97F
OSU AIRPORT    FAIR      44  32  62 SE10      29.95F
BOLTON FIELD   NOT AVBL
RICKENBACK AFB NOT AVBL
NEWARK         FAIR      41  29  62 SE3       29.98F
MARION         FAIR      42  31  64 S13       29.94F
LANCASTER      FAIR      42  31  64 S7        29.98F
ZANESVILLE     FAIR      40  28  62 SE3       30.00F
NEW PHILLY     FAIR      40  29  64 SE3       30.01F
$$



USA.gov is the U.S. government's official web portal to all federal, state and local government web resources and services.